PRIVATE WETTERSTATION BILLIGHEIM-ALLFELD                       ZURCK
Wetterdaten: Mittwoch, 07.06.2017
Datum Zeit Temp. A. Temp. A. min Temp. A. max Feuchte A. Luftdruck Regen Wind Richtung Richtung Sonnenschein ET Solar Taupunkt Windchill Windben Empfang
07.06.2017 00:00 10,7 C 10,7 C 10,9 C 83 % 1011,3 hPa 0,2 l/m 12,9 km/h (3 Bft) W-SW 247 0 min 0,025 mm 0 W/m 7,9 C 6,9 C 29,0 km/h (5 Bft) 91 %
07.06.2017 00:10 10,2 C 10,2 C 10,7 C 85 % 1011,3 hPa 0,0 l/m 12,9 km/h (3 Bft) W-SW 247 0 min 0,000 mm 0 W/m 7,8 C 6,3 C 30,6 km/h (5 Bft) 79 %
07.06.2017 00:20 9,8 C 9,8 C 10,2 C 87 % 1011,1 hPa 0,0 l/m 6,4 km/h (2 Bft) S-SW 202 0 min 0,000 mm 0 W/m 7,7 C 9,8 C 19,3 km/h (3 Bft) 99 %
07.06.2017 00:30 9,3 C 9,3 C 9,8 C 88 % 1011,0 hPa 0,0 l/m 6,4 km/h (2 Bft) S-SW 202 0 min 0,000 mm 0 W/m 7,4 C 9,3 C 14,5 km/h (3 Bft) 100 %
07.06.2017 00:40 9,0 C 9,0 C 9,3 C 89 % 1011,1 hPa 0,2 l/m 4,8 km/h (1 Bft) S-SW 202 0 min 0,000 mm 0 W/m 7,3 C 9,0 C 11,3 km/h (2 Bft) 100 %
07.06.2017 00:50 8,8 C 8,8 C 9,0 C 89 % 1011,2 hPa 0,0 l/m 4,8 km/h (1 Bft) S 180 0 min 0,000 mm 0 W/m 7,1 C 8,8 C 11,3 km/h (2 Bft) 100 %
07.06.2017 01:00 8,6 C 8,6 C 8,8 C 90 % 1011,4 hPa 0,0 l/m 6,4 km/h (2 Bft) S 180 0 min 0,025 mm 0 W/m 7,1 C 8,6 C 14,5 km/h (3 Bft) 100 %
07.06.2017 01:10 8,4 C 8,4 C 8,6 C 90 % 1011,4 hPa 0,0 l/m 6,4 km/h (2 Bft) S-SW 202 0 min 0,000 mm 0 W/m 6,9 C 8,4 C 16,1 km/h (3 Bft) 100 %
07.06.2017 01:20 8,3 C 8,3 C 8,4 C 90 % 1011,4 hPa 0,0 l/m 4,8 km/h (1 Bft) S-SW 202 0 min 0,000 mm 0 W/m 6,8 C 8,3 C 11,3 km/h (2 Bft) 100 %
07.06.2017 01:30 8,3 C 8,3 C 8,3 C 90 % 1011,4 hPa 0,0 l/m 9,7 km/h (2 Bft) S-SW 202 0 min 0,000 mm 0 W/m 6,8 C 5,9 C 22,5 km/h (4 Bft) 100 %
07.06.2017 01:40 8,5 C 8,3 C 8,5 C 90 % 1011,6 hPa 0,0 l/m 11,3 km/h (2 Bft) S-SW 202 0 min 0,000 mm 0 W/m 7,0 C 5,2 C 22,5 km/h (4 Bft) 100 %
07.06.2017 01:50 8,6 C 8,5 C 8,6 C 90 % 1011,5 hPa 0,0 l/m 8,0 km/h (2 Bft) S-SW 202 0 min 0,000 mm 0 W/m 7,1 C 7,4 C 16,1 km/h (3 Bft) 100 %
07.06.2017 02:00 8,6 C 8,6 C 8,6 C 90 % 1011,6 hPa 0,0 l/m 6,4 km/h (2 Bft) SW 225 0 min 0,000 mm 0 W/m 7,1 C 8,6 C 12,9 km/h (3 Bft) 100 %
07.06.2017 02:10 8,6 C 8,6 C 8,6 C 90 % 1011,6 hPa 0,0 l/m 6,4 km/h (2 Bft) S-SW 202 0 min 0,000 mm 0 W/m 7,1 C 8,6 C 17,7 km/h (3 Bft) 100 %
07.06.2017 02:20 8,7 C 8,6 C 8,7 C 90 % 1011,8 hPa 0,0 l/m 6,4 km/h (2 Bft) S-SW 202 0 min 0,000 mm 0 W/m 7,2 C 8,7 C 14,5 km/h (3 Bft) 100 %
07.06.2017 02:30 8,6 C 8,6 C 8,7 C 90 % 1011,9 hPa 0,0 l/m 9,7 km/h (2 Bft) S-SW 202 0 min 0,000 mm 0 W/m 7,1 C 6,2 C 17,7 km/h (3 Bft) 100 %
07.06.2017 02:40 8,6 C 8,6 C 8,6 C 90 % 1011,9 hPa 0,0 l/m 9,7 km/h (2 Bft) S-SW 202 0 min 0,000 mm 0 W/m 7,1 C 6,2 C 19,3 km/h (3 Bft) 90 %
07.06.2017 02:50 8,6 C 8,5 C 8,6 C 90 % 1012,2 hPa 0,0 l/m 9,7 km/h (2 Bft) S-SW 202 0 min 0,000 mm 0 W/m 7,1 C 6,2 C 17,7 km/h (3 Bft) 100 %
07.06.2017 03:00 8,6 C 8,6 C 8,6 C 90 % 1012,2 hPa 0,0 l/m 9,7 km/h (2 Bft) S-SW 202 0 min 0,000 mm 0 W/m 7,1 C 6,2 C 19,3 km/h (3 Bft) 100 %
07.06.2017 03:10 8,6 C 8,6 C 8,6 C 90 % 1012,2 hPa 0,0 l/m 9,7 km/h (2 Bft) S-SW 202 0 min 0,000 mm 0 W/m 7,1 C 6,2 C 17,7 km/h (3 Bft) 100 %
07.06.2017 03:20 8,6 C 8,6 C 8,6 C 90 % 1012,4 hPa 0,0 l/m 8,0 km/h (2 Bft) S-SW 202 0 min 0,000 mm 0 W/m 7,1 C 7,4 C 17,7 km/h (3 Bft) 100 %
07.06.2017 03:30 8,6 C 8,6 C 8,6 C 90 % 1012,6 hPa 0,0 l/m 8,0 km/h (2 Bft) S-SW 202 0 min 0,000 mm 0 W/m 7,1 C 7,4 C 17,7 km/h (3 Bft) 100 %
07.06.2017 03:40 8,6 C 8,6 C 8,6 C 90 % 1012,5 hPa 0,0 l/m 6,4 km/h (2 Bft) SW 225 0 min 0,000 mm 0 W/m 7,1 C 8,6 C 19,3 km/h (3 Bft) 100 %
07.06.2017 03:50 8,6 C 8,6 C 8,6 C 90 % 1012,6 hPa 0,0 l/m 4,8 km/h (1 Bft) SW 225 0 min 0,000 mm 0 W/m 7,1 C 8,6 C 14,5 km/h (3 Bft) 100 %
07.06.2017 04:00 8,6 C 8,6 C 8,6 C 90 % 1012,6 hPa 0,0 l/m 8,0 km/h (2 Bft) SW 225 0 min 0,000 mm 0 W/m 7,1 C 7,4 C 20,9 km/h (4 Bft) 100 %
07.06.2017 04:10 8,6 C 8,6 C 8,6 C 89 % 1012,6 hPa 0,0 l/m 9,7 km/h (2 Bft) SW 225 0 min 0,000 mm 0 W/m 6,9 C 6,2 C 22,5 km/h (4 Bft) 100 %
07.06.2017 04:20 8,6 C 8,6 C 8,7 C 89 % 1012,6 hPa 0,0 l/m 6,4 km/h (2 Bft) SW 225 0 min 0,000 mm 0 W/m 6,9 C 8,6 C 17,7 km/h (3 Bft) 99 %
07.06.2017 04:30 8,6 C 8,6 C 8,7 C 89 % 1012,5 hPa 0,0 l/m 6,4 km/h (2 Bft) SW 225 0 min 0,000 mm 0 W/m 6,9 C 8,6 C 20,9 km/h (4 Bft) 100 %
07.06.2017 04:40 8,4 C 8,4 C 8,6 C 89 % 1012,5 hPa 0,0 l/m 4,8 km/h (1 Bft) SW 225 0 min 0,000 mm 0 W/m 6,7 C 8,4 C 14,5 km/h (3 Bft) 99 %
07.06.2017 04:50 8,3 C 8,3 C 8,4 C 90 % 1012,6 hPa 0,0 l/m 4,8 km/h (1 Bft) SW 225 0 min 0,000 mm 0 W/m 6,8 C 8,3 C 11,3 km/h (2 Bft) 100 %
07.06.2017 05:00 8,2 C 8,2 C 8,3 C 90 % 1012,6 hPa 0,0 l/m 4,8 km/h (1 Bft) S-SW 202 0 min 0,000 mm 0 W/m 6,7 C 8,2 C 11,3 km/h (2 Bft) 100 %
07.06.2017 05:10 8,2 C 8,1 C 8,2 C 90 % 1012,7 hPa 0,0 l/m 4,8 km/h (1 Bft) SW 225 0 min 0,000 mm 0 W/m 6,7 C 8,2 C 16,1 km/h (3 Bft) 100 %
07.06.2017 05:20 8,4 C 8,2 C 8,4 C 90 % 1012,7 hPa 0,0 l/m 4,8 km/h (1 Bft) SW 225 0 min 0,000 mm 0 W/m 6,9 C 8,4 C 11,3 km/h (2 Bft) 100 %
07.06.2017 05:30 8,6 C 8,4 C 8,6 C 90 % 1012,7 hPa 0,0 l/m 6,4 km/h (2 Bft) S-SW 202 0 min 0,000 mm 5 W/m 7,1 C 8,6 C 14,5 km/h (3 Bft) 100 %
07.06.2017 05:40 8,6 C 8,6 C 8,6 C 90 % 1012,8 hPa 0,0 l/m 8,0 km/h (2 Bft) S-SW 202 0 min 0,000 mm 7 W/m 7,1 C 7,4 C 20,9 km/h (4 Bft) 100 %
07.06.2017 05:50 8,6 C 8,5 C 8,6 C 90 % 1013,0 hPa 0,0 l/m 9,7 km/h (2 Bft) S-SW 202 0 min 0,000 mm 11 W/m 7,1 C 6,2 C 20,9 km/h (4 Bft) 100 %
07.06.2017 06:00 8,4 C 8,4 C 8,6 C 90 % 1013,1 hPa 0,2 l/m 6,4 km/h (2 Bft) S-SW 202 0 min 0,000 mm 14 W/m 6,9 C 8,4 C 19,3 km/h (3 Bft) 100 %
07.06.2017 06:10 8,4 C 8,4 C 8,4 C 91 % 1013,2 hPa 0,0 l/m 6,4 km/h (2 Bft) S-SW 202 0 min 0,000 mm 19 W/m 7,0 C 8,4 C 19,3 km/h (3 Bft) 100 %
07.06.2017 06:20 8,6 C 8,4 C 8,6 C 91 % 1013,2 hPa 0,0 l/m 4,8 km/h (1 Bft) SW 225 0 min 0,000 mm 51 W/m 7,2 C 8,6 C 17,7 km/h (3 Bft) 100 %
07.06.2017 06:30 8,8 C 8,6 C 8,8 C 91 % 1013,3 hPa 0,0 l/m 8,0 km/h (2 Bft) SW 225 0 min 0,000 mm 91 W/m 7,4 C 7,6 C 20,9 km/h (4 Bft) 100 %
07.06.2017 06:40 9,2 C 8,8 C 9,2 C 91 % 1013,4 hPa 0,0 l/m 9,7 km/h (2 Bft) SW 225 0 min 0,000 mm 90 W/m 7,8 C 6,9 C 20,9 km/h (4 Bft) 100 %
07.06.2017 06:50 9,4 C 9,2 C 9,4 C 90 % 1013,6 hPa 0,0 l/m 6,4 km/h (2 Bft) SW 225 0 min 0,000 mm 49 W/m 7,8 C 9,4 C 22,5 km/h (4 Bft) 100 %
07.06.2017 07:00 9,6 C 9,4 C 9,6 C 90 % 1013,8 hPa 0,0 l/m 9,7 km/h (2 Bft) S-SW 202 0 min 0,025 mm 26 W/m 8,0 C 7,3 C 22,5 km/h (4 Bft) 100 %
07.06.2017 07:10 9,6 C 9,6 C 9,6 C 90 % 1013,9 hPa 0,0 l/m 3,2 km/h (1 Bft) S-SW 202 0 min 0,000 mm 54 W/m 8,0 C 9,6 C 14,5 km/h (3 Bft) 100 %
07.06.2017 07:20 9,7 C 9,6 C 9,7 C 90 % 1014,0 hPa 0,0 l/m 9,7 km/h (2 Bft) SW 225 0 min 0,000 mm 53 W/m 8,1 C 7,4 C 20,9 km/h (4 Bft) 100 %
07.06.2017 07:30 9,7 C 9,7 C 9,7 C 90 % 1014,1 hPa 0,0 l/m 11,3 km/h (2 Bft) S-SW 202 0 min 0,000 mm 63 W/m 8,1 C 6,5 C 25,7 km/h (4 Bft) 100 %
07.06.2017 07:40 9,8 C 9,7 C 9,8 C 89 % 1014,1 hPa 0,0 l/m 8,0 km/h (2 Bft) S-SW 202 10 min 0,000 mm 165 W/m 8,1 C 8,6 C 20,9 km/h (4 Bft) 100 %
07.06.2017 07:50 10,0 C 9,8 C 10,0 C 88 % 1014,2 hPa 0,0 l/m 11,3 km/h (2 Bft) S-SW 202 0 min 0,000 mm 125 W/m 8,1 C 6,9 C 27,4 km/h (4 Bft) 100 %
07.06.2017 08:00 10,1 C 10,0 C 10,1 C 88 % 1014,3 hPa 0,0 l/m 8,0 km/h (2 Bft) W-SW 247 0 min 0,025 mm 72 W/m 8,2 C 9,0 C 20,9 km/h (4 Bft) 100 %
07.06.2017 08:10 10,1 C 10,1 C 10,1 C 88 % 1014,3 hPa 0,0 l/m 6,4 km/h (2 Bft) W-SW 247 0 min 0,000 mm 74 W/m 8,2 C 10,1 C 24,1 km/h (4 Bft) 89 %
07.06.2017 08:20 10,1 C 10,1 C 10,1 C 88 % 1014,4 hPa 0,0 l/m 1,6 km/h (1 Bft) SW 225 0 min 0,000 mm 105 W/m 8,2 C 10,1 C 14,5 km/h (3 Bft) 100 %
07.06.2017 08:30 10,3 C 10,1 C 10,3 C 89 % 1014,6 hPa 0,0 l/m 3,2 km/h (1 Bft) W-SW 247 10 min 0,000 mm 193 W/m 8,6 C 10,3 C 19,3 km/h (3 Bft) 100 %
07.06.2017 08:40 10,5 C 10,3 C 10,5 C 87 % 1014,7 hPa 0,0 l/m 6,4 km/h (2 Bft) W-SW 247 10 min 0,000 mm 160 W/m 8,4 C 10,5 C 25,7 km/h (4 Bft) 100 %
07.06.2017 08:50 10,6 C 10,4 C 10,6 C 86 % 1014,7 hPa 0,0 l/m 8,0 km/h (2 Bft) S-SW 202 10 min 0,000 mm 172 W/m 8,4 C 9,5 C 25,7 km/h (4 Bft) 100 %
07.06.2017 09:00 10,7 C 10,6 C 10,7 C 85 % 1014,8 hPa 0,0 l/m 6,4 km/h (2 Bft) W-SW 247 10 min 0,051 mm 162 W/m 8,3 C 10,7 C 20,9 km/h (4 Bft) 100 %
07.06.2017 09:10 10,9 C 10,7 C 10,9 C 85 % 1014,8 hPa 0,0 l/m 8,0 km/h (2 Bft) W-SW 247 10 min 0,000 mm 543 W/m 8,5 C 9,8 C 25,7 km/h (4 Bft) 100 %
07.06.2017 09:20 11,9 C 10,9 C 11,9 C 82 % 1014,8 hPa 0,0 l/m 9,7 km/h (2 Bft) SW 225 10 min 0,000 mm 612 W/m 8,9 C 9,9 C 25,7 km/h (4 Bft) 100 %
07.06.2017 09:30 12,6 C 12,0 C 12,6 C 78 % 1014,9 hPa 0,0 l/m 16,1 km/h (3 Bft) W-SW 247 10 min 0,000 mm 721 W/m 8,9 C 7,9 C 40,2 km/h (6 Bft) 100 %
07.06.2017 09:40 13,1 C 12,0 C 13,1 C 74 % 1014,9 hPa 0,0 l/m 19,3 km/h (3 Bft) S-SW 205 10 min 0,000 mm 348 W/m 8,6 C 7,5 C 29,0 km/h (5 Bft) 99 %
07.06.2017 09:50 13,2 C 13,1 C 13,3 C 73 % 1014,9 hPa 0,0 l/m 16,8 km/h (3 Bft) S-SW 213 10 min 0,000 mm 174 W/m 8,5 C 8,4 C 37,0 km/h (5 Bft) 100 %
07.06.2017 10:00 12,8 C 12,8 C 13,2 C 74 % 1014,8 hPa 0,0 l/m 12,6 km/h (3 Bft) W-SW 255 10 min 0,230 mm 220 W/m 8,3 C 9,5 C 27,4 km/h (4 Bft) 100 %
07.06.2017 10:10 13,2 C 12,7 C 13,2 C 80 % 1014,8 hPa 0,0 l/m 9,5 km/h (2 Bft) W-SW 254 10 min 0,000 mm 1037 W/m 9,8 C 11,4 C 22,5 km/h (4 Bft) 99 %
07.06.2017 10:20 13,9 C 13,2 C 13,9 C 71 % 1014,9 hPa 0,0 l/m 15,2 km/h (3 Bft) W 271 10 min 0,000 mm 301 W/m 8,7 C 9,8 C 41,8 km/h (6 Bft) 100 %
07.06.2017 10:30 12,8 C 12,8 C 13,9 C 73 % 1015,0 hPa 0,0 l/m 23,8 km/h (4 Bft) W-SW 256 0 min 0,000 mm 125 W/m 8,1 C 5,9 C 46,7 km/h (6 Bft) 100 %
07.06.2017 10:40 12,0 C 12,0 C 12,8 C 79 % 1015,3 hPa 0,0 l/m 9,4 km/h (2 Bft) W-SW 238 10 min 0,000 mm 940 W/m 8,5 C 10,1 C 22,5 km/h (4 Bft) 100 %
07.06.2017 10:50 12,6 C 12,0 C 12,6 C 78 % 1015,3 hPa 0,0 l/m 10,5 km/h (2 Bft) W 261 10 min 0,000 mm 192 W/m 8,9 C 10,2 C 30,6 km/h (5 Bft) 100 %
07.06.2017 11:00 12,2 C 12,2 C 12,6 C 80 % 1015,4 hPa 0,2 l/m 10,2 km/h (2 Bft) W-SW 257 10 min 0,000 mm 179 W/m 8,9 C 9,9 C 24,1 km/h (4 Bft) 100 %
07.06.2017 11:10 12,2 C 11,8 C 12,2 C 88 % 1015,3 hPa 0,0 l/m 7,8 km/h (2 Bft) W-SW 253 10 min 0,229 mm 810 W/m 10,3 C 11,3 C 22,5 km/h (4 Bft) 100 %
07.06.2017 11:20 12,8 C 12,2 C 12,8 C 82 % 1015,2 hPa 0,0 l/m 11,6 km/h (2 Bft) W-SW 248 10 min 0,000 mm 881 W/m 9,8 C 9,9 C 29,0 km/h (5 Bft) 92 %
07.06.2017 11:30 13,9 C 12,8 C 13,9 C 82 % 1015,3 hPa 0,2 l/m 11,4 km/h (2 Bft) SW 232 10 min 0,000 mm 1118 W/m 10,9 C 11,3 C 27,4 km/h (4 Bft) 100 %
07.06.2017 11:40 13,2 C 13,2 C 14,1 C 78 % 1015,7 hPa 0,8 l/m 13,4 km/h (3 Bft) W 263 0 min 0,000 mm 91 W/m 9,4 C 9,6 C 29,0 km/h (5 Bft) 100 %
07.06.2017 11:50 11,7 C 11,7 C 13,2 C 83 % 1015,9 hPa 0,6 l/m 14,2 km/h (3 Bft) W-SW 248 10 min 0,000 mm 285 W/m 8,9 C 7,5 C 37,0 km/h (5 Bft) 99 %
07.06.2017 12:00 11,2 C 11,2 C 11,7 C 82 % 1016,1 hPa 0,0 l/m 18,6 km/h (3 Bft) SW 235 0 min 0,279 mm 77 W/m 8,2 C 5,3 C 45,1 km/h (6 Bft) 99 %
07.06.2017 12:10 11,1 C 10,8 C 11,2 C 84 % 1016,2 hPa 0,0 l/m 12,7 km/h (3 Bft) S 191 10 min 0,000 mm 1146 W/m 8,5 C 7,5 C 37,0 km/h (5 Bft) 100 %
07.06.2017 12:20 11,7 C 11,1 C 11,7 C 81 % 1016,2 hPa 0,0 l/m 10,4 km/h (2 Bft) S 188 10 min 0,000 mm 193 W/m 8,5 C 9,3 C 24,1 km/h (4 Bft) 100 %
07.06.2017 12:30 12,0 C 11,7 C 12,0 C 82 % 1016,5 hPa 0,0 l/m 12,8 km/h (3 Bft) S-SW 212 10 min 0,000 mm 420 W/m 9,0 C 8,5 C 29,0 km/h (5 Bft) 100 %
07.06.2017 12:40 12,7 C 12,0 C 12,7 C 79 % 1016,9 hPa 0,0 l/m 18,9 km/h (3 Bft) S-SW 200 10 min 0,000 mm 998 W/m 9,2 C 7,1 C 37,0 km/h (5 Bft) 100 %
07.06.2017 12:50 13,5 C 12,7 C 13,5 C 81 % 1016,5 hPa 0,0 l/m 19,9 km/h (4 Bft) SW 223 10 min 0,000 mm 1011 W/m 10,3 C 7,8 C 40,2 km/h (6 Bft) 100 %
07.06.2017 13:00 13,9 C 13,5 C 13,9 C 79 % 1016,4 hPa 0,0 l/m 17,5 km/h (3 Bft) S 190 10 min 0,406 mm 376 W/m 10,3 C 9,0 C 40,2 km/h (6 Bft) 100 %
07.06.2017 13:10 13,7 C 13,7 C 14,0 C 79 % 1016,3 hPa 0,0 l/m 11,8 km/h (2 Bft) S-SW 203 10 min 0,000 mm 218 W/m 10,1 C 10,9 C 25,7 km/h (4 Bft) 100 %
07.06.2017 13:20 13,7 C 13,6 C 13,7 C 78 % 1016,6 hPa 0,0 l/m 13,6 km/h (3 Bft) S-SW 202 10 min 0,000 mm 1178 W/m 9,9 C 10,1 C 37,0 km/h (5 Bft) 100 %
07.06.2017 13:30 14,1 C 13,7 C 14,2 C 74 % 1016,7 hPa 0,0 l/m 12,6 km/h (3 Bft) SW 223 10 min 0,000 mm 345 W/m 9,5 C 11,0 C 40,2 km/h (6 Bft) 100 %
07.06.2017 13:40 14,6 C 14,1 C 14,6 C 76 % 1016,7 hPa 0,0 l/m 14,0 km/h (3 Bft) SW 217 10 min 0,000 mm 1095 W/m 10,4 C 11,1 C 33,8 km/h (5 Bft) 100 %
07.06.2017 13:50 15,1 C 14,6 C 15,1 C 71 % 1016,7 hPa 0,0 l/m 17,1 km/h (3 Bft) W-SW 244 10 min 0,000 mm 1071 W/m 9,9 C 10,7 C 40,2 km/h (6 Bft) 100 %
07.06.2017 14:00 15,1 C 15,1 C 15,2 C 67 % 1016,5 hPa 0,0 l/m 17,7 km/h (3 Bft) W-SW 256 10 min 0,000 mm 204 W/m 9,0 C 10,5 C 37,0 km/h (5 Bft) 99 %
07.06.2017 14:10 14,4 C 14,4 C 15,1 C 66 % 1016,4 hPa 0,0 l/m 16,6 km/h (3 Bft) W 265 10 min 0,406 mm 269 W/m 8,1 C 9,9 C 43,5 km/h (6 Bft) 100 %
07.06.2017 14:20 14,2 C 14,2 C 14,4 C 73 % 1016,4 hPa 0,0 l/m 14,8 km/h (3 Bft) S-SW 199 10 min 0,001 mm 239 W/m 9,4 C 10,3 C 37,0 km/h (5 Bft) 92 %
07.06.2017 14:30 14,2 C 13,8 C 14,2 C 74 % 1016,5 hPa 0,0 l/m 21,0 km/h (4 Bft) S 190 10 min 0,000 mm 1097 W/m 9,6 C 8,5 C 41,8 km/h (6 Bft) 100 %
07.06.2017 14:40 14,2 C 14,2 C 14,3 C 76 % 1016,9 hPa 0,0 l/m 17,5 km/h (3 Bft) NW 317 0 min 0,000 mm 91 W/m 10,0 C 9,4 C 35,4 km/h (5 Bft) 100 %
07.06.2017 14:50 13,7 C 13,7 C 14,2 C 82 % 1016,7 hPa 0,0 l/m 7,2 km/h (2 Bft) SW 223 10 min 0,000 mm 889 W/m 10,7 C 13,2 C 22,5 km/h (4 Bft) 100 %
07.06.2017 15:00 14,1 C 13,7 C 14,1 C 78 % 1016,8 hPa 0,0 l/m 9,5 km/h (2 Bft) W 259 10 min 0,254 mm 292 W/m 10,3 C 12,4 C 24,1 km/h (4 Bft) 100 %
07.06.2017 15:10 14,4 C 14,1 C 14,4 C 76 % 1017,0 hPa 0,0 l/m 6,9 km/h (2 Bft) W-SW 240 10 min 0,000 mm 260 W/m 10,2 C 14,1 C 19,3 km/h (3 Bft) 100 %
07.06.2017 15:20 15,3 C 14,4 C 15,3 C 70 % 1017,0 hPa 0,0 l/m 15,1 km/h (3 Bft) S-SW 205 10 min 0,000 mm 274 W/m 9,9 C 11,5 C 41,8 km/h (6 Bft) 100 %
07.06.2017 15:30 15,7 C 15,3 C 15,7 C 67 % 1016,9 hPa 0,0 l/m 12,5 km/h (3 Bft) W-SW 244 10 min 0,000 mm 246 W/m 9,6 C 12,9 C 33,8 km/h (5 Bft) 100 %
07.06.2017 15:40 15,4 C 15,4 C 15,7 C 65 % 1017,0 hPa 0,0 l/m 10,8 km/h (2 Bft) W 267 10 min 0,000 mm 279 W/m 8,9 C 13,2 C 29,0 km/h (5 Bft) 100 %
07.06.2017 15:50 15,6 C 15,4 C 15,7 C 65 % 1017,0 hPa 0,0 l/m 16,0 km/h (3 Bft) W-SW 241 10 min 0,000 mm 176 W/m 9,0 C 11,6 C 35,4 km/h (5 Bft) 100 %
07.06.2017 16:00 15,5 C 15,3 C 15,6 C 70 % 1017,0 hPa 0,0 l/m 7,6 km/h (2 Bft) SW 229 10 min 0,254 mm 826 W/m 10,1 C 14,8 C 20,9 km/h (4 Bft) 100 %
07.06.2017 16:10 16,0 C 15,5 C 16,0 C 65 % 1017,0 hPa 0,0 l/m 14,4 km/h (3 Bft) S-SW 211 10 min 0,000 mm 784 W/m 9,4 C 12,6 C 35,4 km/h (5 Bft) 100 %
07.06.2017 16:20 16,4 C 16,0 C 16,4 C 63 % 1017,0 hPa 0,0 l/m 15,9 km/h (3 Bft) W 259 10 min 0,000 mm 717 W/m 9,3 C 12,6 C 35,4 km/h (5 Bft) 100 %
07.06.2017 16:30 16,7 C 16,4 C 16,7 C 64 % 1016,9 hPa 0,0 l/m 11,1 km/h (2 Bft) W-NW 285 10 min 0,000 mm 309 W/m 9,9 C 14,6 C 37,0 km/h (5 Bft) 100 %
07.06.2017 16:40 16,9 C 16,7 C 16,9 C 62 % 1016,9 hPa 0,0 l/m 11,7 km/h (2 Bft) SW 227 0 min 0,000 mm 93 W/m 9,6 C 14,6 C 40,2 km/h (6 Bft) 100 %
07.06.2017 16:50 16,8 C 16,8 C 17,0 C 60 % 1017,1 hPa 0,0 l/m 23,4 km/h (4 Bft) W-SW 244 0 min 0,000 mm 81 W/m 9,0 C 11,4 C 45,1 km/h (6 Bft) 100 %
07.06.2017 17:00 16,7 C 16,7 C 16,8 C 59 % 1017,1 hPa 0,0 l/m 15,7 km/h (3 Bft) W 267 0 min 0,254 mm 139 W/m 8,6 C 13,0 C 43,5 km/h (6 Bft) 100 %
07.06.2017 17:10 16,8 C 16,7 C 16,8 C 61 % 1017,2 hPa 0,0 l/m 13,1 km/h (3 Bft) SW 215 10 min 0,000 mm 188 W/m 9,2 C 14,0 C 37,0 km/h (5 Bft) 100 %
07.06.2017 17:20 16,9 C 16,8 C 16,9 C 61 % 1017,4 hPa 0,0 l/m 14,4 km/h (3 Bft) S-SW 211 0 min 0,000 mm 90 W/m 9,3 C 13,7 C 43,5 km/h (6 Bft) 100 %
07.06.2017 17:30 16,5 C 16,5 C 17,0 C 63 % 1017,4 hPa 0,0 l/m 16,2 km/h (3 Bft) S-SW 203 0 min 0,000 mm 127 W/m 9,4 C 12,7 C 41,8 km/h (6 Bft) 100 %
07.06.2017 17:40 16,6 C 16,4 C 16,6 C 61 % 1017,3 hPa 0,0 l/m 11,5 km/h (2 Bft) W-SW 247 0 min 0,000 mm 72 W/m 9,0 C 14,3 C 33,8 km/h (5 Bft) 100 %
07.06.2017 17:50 16,6 C 16,6 C 16,7 C 62 % 1017,5 hPa 0,0 l/m 15,0 km/h (3 Bft) W 261 0 min 0,000 mm 63 W/m 9,3 C 13,1 C 37,0 km/h (5 Bft) 100 %
07.06.2017 18:00 16,5 C 16,5 C 16,6 C 57 % 1017,4 hPa 0,0 l/m 15,9 km/h (3 Bft) W-SW 244 0 min 0,000 mm 58 W/m 8,0 C 12,7 C 30,6 km/h (5 Bft) 100 %
07.06.2017 18:10 16,5 C 16,4 C 16,5 C 58 % 1017,6 hPa 0,0 l/m 13,3 km/h (3 Bft) W-SW 241 0 min 0,127 mm 74 W/m 8,2 C 13,5 C 32,2 km/h (5 Bft) 100 %
07.06.2017 18:20 16,3 C 16,3 C 16,5 C 60 % 1017,7 hPa 0,0 l/m 15,0 km/h (3 Bft) SW 223 0 min 0,000 mm 95 W/m 8,5 C 12,8 C 40,2 km/h (6 Bft) 100 %
07.06.2017 18:30 16,4 C 16,3 C 16,4 C 57 % 1017,9 hPa 0,0 l/m 12,0 km/h (2 Bft) W 263 0 min 0,000 mm 81 W/m 7,9 C 13,9 C 41,8 km/h (6 Bft) 100 %
07.06.2017 18:40 16,2 C 16,2 C 16,5 C 59 % 1017,8 hPa 0,0 l/m 12,8 km/h (3 Bft) W 271 0 min 0,000 mm 79 W/m 8,2 C 13,4 C 35,4 km/h (5 Bft) 100 %
07.06.2017 18:50 15,9 C 15,9 C 16,2 C 61 % 1017,9 hPa 0,0 l/m 8,5 km/h (2 Bft) W-SW 245 10 min 0,000 mm 167 W/m 8,4 C 14,8 C 25,7 km/h (4 Bft) 100 %
07.06.2017 19:00 16,1 C 15,9 C 16,1 C 61 % 1017,8 hPa 0,0 l/m 10,0 km/h (2 Bft) SW 230 0 min 0,127 mm 83 W/m 8,6 C 14,3 C 25,7 km/h (4 Bft) 100 %
07.06.2017 19:10 16,0 C 16,0 C 16,1 C 62 % 1018,0 hPa 0,0 l/m 7,9 km/h (2 Bft) W-SW 250 0 min 0,000 mm 77 W/m 8,7 C 15,2 C 24,1 km/h (4 Bft) 99 %
07.06.2017 19:20 15,6 C 15,6 C 16,0 C 62 % 1018,4 hPa 0,0 l/m 8,0 km/h (2 Bft) W-SW 251 0 min 0,000 mm 69 W/m 8,3 C 14,7 C 25,7 km/h (4 Bft) 98 %
07.06.2017 19:30 15,1 C 15,1 C 15,6 C 66 % 1018,7 hPa 0,0 l/m 7,6 km/h (2 Bft) W 272 0 min 0,000 mm 97 W/m 8,8 C 14,4 C 25,7 km/h (4 Bft) 99 %
07.06.2017 19:40 14,5 C 14,5 C 15,1 C 69 % 1018,3 hPa 0,0 l/m 3,8 km/h (1 Bft) W 265 0 min 0,000 mm 77 W/m 8,9 C 14,5 C 19,3 km/h (3 Bft) 100 %
07.06.2017 19:50 14,3 C 14,3 C 14,5 C 69 % 1018,4 hPa 0,0 l/m 4,2 km/h (1 Bft) S-SW 211 0 min 0,000 mm 47 W/m 8,7 C 14,3 C 20,9 km/h (4 Bft) 99 %
07.06.2017 20:00 14,2 C 14,2 C 14,3 C 69 % 1018,4 hPa 0,0 l/m 2,0 km/h (1 Bft) S-SW 209 0 min 0,000 mm 33 W/m 8,6 C 14,2 C 11,3 km/h (2 Bft) 100 %
07.06.2017 20:10 14,1 C 14,1 C 14,2 C 72 % 1018,5 hPa 0,0 l/m 0,0 km/h (0 Bft) SW 214 0 min 0,076 mm 28 W/m 9,1 C 14,1 C 0,0 km/h (0 Bft) 99 %
07.06.2017 20:20 13,8 C 13,8 C 14,1 C 73 % 1018,6 hPa 0,0 l/m 1,5 km/h (1 Bft) SW 229 0 min 0,000 mm 16 W/m 9,0 C 13,8 C 16,1 km/h (3 Bft) 99 %
07.06.2017 20:30 13,4 C 13,4 C 13,8 C 73 % 1018,7 hPa 0,0 l/m 1,3 km/h (1 Bft) W-SW 245 0 min 0,000 mm 12 W/m 8,7 C 13,4 C 11,3 km/h (2 Bft) 99 %
07.06.2017 20:40 12,8 C 12,8 C 13,4 C 77 % 1018,9 hPa 0,0 l/m 0,4 km/h (0 Bft) SW 228 0 min 0,000 mm 11 W/m 8,9 C 12,8 C 4,8 km/h (1 Bft) 99 %
07.06.2017 20:50 12,3 C 12,3 C 12,8 C 77 % 1018,9 hPa 0,0 l/m 1,5 km/h (1 Bft) SO 130 0 min 0,000 mm 12 W/m 8,4 C 12,3 C 6,4 km/h (2 Bft) 98 %
07.06.2017 21:00 12,3 C 12,3 C 12,3 C 77 % 1018,9 hPa 0,0 l/m 4,3 km/h (1 Bft) S-SO 148 0 min 0,000 mm 9 W/m 8,4 C 12,3 C 8,0 km/h (2 Bft) 99 %
07.06.2017 21:10 12,2 C 12,1 C 12,3 C 77 % 1018,9 hPa 0,0 l/m 3,2 km/h (1 Bft) S-SO 157 0 min 0,000 mm 9 W/m 8,3 C 12,2 C 8,0 km/h (2 Bft) 98 %
07.06.2017 21:20 11,8 C 11,8 C 12,1 C 79 % 1019,0 hPa 0,0 l/m 1,6 km/h (1 Bft) S-SO 157 0 min 0,000 mm 5 W/m 8,3 C 11,8 C 8,0 km/h (2 Bft) 98 %
07.06.2017 21:30 11,6 C 11,6 C 11,8 C 80 % 1019,2 hPa 0,0 l/m 0,0 km/h (0 Bft) S-SO 157 0 min 0,000 mm 0 W/m 8,3 C 11,6 C 4,8 km/h (1 Bft) 98 %
07.06.2017 21:40 11,3 C 11,3 C 11,6 C 81 % 1019,3 hPa 0,0 l/m 0,0 km/h (0 Bft) S-SO 157 0 min 0,000 mm 0 W/m 8,2 C 11,3 C 6,4 km/h (2 Bft) 97 %
07.06.2017 21:50 11,3 C 11,3 C 11,3 C 80 % 1019,3 hPa 0,0 l/m 4,8 km/h (1 Bft) S-SO 157 0 min 0,000 mm 0 W/m 8,0 C 11,3 C 8,0 km/h (2 Bft) 98 %
07.06.2017 22:00 11,6 C 11,4 C 11,6 C 79 % 1019,5 hPa 0,0 l/m 3,2 km/h (1 Bft) SO 135 0 min 0,000 mm 0 W/m 8,1 C 11,6 C 9,7 km/h (2 Bft) 97 %
07.06.2017 22:10 11,6 C 11,6 C 11,6 C 78 % 1019,5 hPa 0,0 l/m 4,8 km/h (1 Bft) SO 135 0 min 0,000 mm 0 W/m 7,9 C 11,6 C 9,7 km/h (2 Bft) 98 %
07.06.2017 22:20 11,7 C 11,6 C 11,7 C 77 % 1019,6 hPa 0,0 l/m 4,8 km/h (1 Bft) SO 135 0 min 0,000 mm 0 W/m 7,8 C 11,7 C 14,5 km/h (3 Bft) 98 %
07.06.2017 22:30 11,7 C 11,7 C 11,8 C 77 % 1019,7 hPa 0,0 l/m 4,8 km/h (1 Bft) SO 135 0 min 0,000 mm 0 W/m 7,8 C 11,7 C 9,7 km/h (2 Bft) 98 %
07.06.2017 22:40 11,5 C 11,5 C 11,8 C 77 % 1019,7 hPa 0,0 l/m 3,2 km/h (1 Bft) SO 135 0 min 0,000 mm 0 W/m 7,6 C 11,5 C 8,0 km/h (2 Bft) 98 %
07.06.2017 22:50 11,6 C 11,5 C 11,6 C 76 % 1020,0 hPa 0,0 l/m 6,4 km/h (2 Bft) SO 135 0 min 0,000 mm 0 W/m 7,5 C 11,6 C 11,3 km/h (2 Bft) 98 %
07.06.2017 23:00 11,6 C 11,6 C 11,6 C 76 % 1020,0 hPa 0,0 l/m 6,4 km/h (2 Bft) SO 135 0 min 0,025 mm 0 W/m 7,5 C 11,6 C 12,9 km/h (3 Bft) 98 %
07.06.2017 23:10 11,6 C 11,6 C 11,6 C 76 % 1020,1 hPa 0,0 l/m 6,4 km/h (2 Bft) SO 135 0 min 0,000 mm 0 W/m 7,5 C 11,6 C 9,7 km/h (2 Bft) 98 %
07.06.2017 23:20 11,4 C 11,4 C 11,6 C 76 % 1020,3 hPa 0,0 l/m 6,4 km/h (2 Bft) SO 135 0 min 0,000 mm 0 W/m 7,3 C 11,4 C 11,3 km/h (2 Bft) 98 %
07.06.2017 23:30 11,2 C 11,2 C 11,4 C 77 % 1020,3 hPa 0,0 l/m 4,8 km/h (1 Bft) S-SO 157 0 min 0,000 mm 0 W/m 7,3 C 11,2 C 9,7 km/h (2 Bft) 97 %
07.06.2017 23:40 11,1 C 11,1 C 11,2 C 78 % 1020,2 hPa 0,0 l/m 4,8 km/h (1 Bft) S-SO 157 0 min 0,000 mm 0 W/m 7,4 C 11,1 C 9,7 km/h (2 Bft) 97 %
07.06.2017 23:50 10,9 C 10,9 C 11,1 C 78 % 1020,2 hPa 0,0 l/m 4,8 km/h (1 Bft) SO 135 0 min 0,000 mm 0 W/m 7,2 C 10,9 C 8,0 km/h (2 Bft) 98 %
_ Min-Zeit 05:10 05:10 05:10 18:00 00:30 - 20:10 - - - - - 05:00 01:40 20:10 00:10
Minimum _ 8,1 C 8,1 C 8,2 C 57 % 1011,0 hPa - 0,0 km/h (0 Bft) - - - - - 6,7 C 5,2 C 0,0 km/h (0 Bft) 79 %
_ Max-Zeit 16:50 16:50 16:50 06:10 23:20 11:40 10:30 - - 07:40 13:00 13:20 11:30 19:10 10:30 00:30
Maximum _ 17,0 C 16,8 C 17,0 C 91 % 1020,3 hPa 0,8 l/m 23,8 km/h
W-SW (4 Bft)
- - 10 min 0,406 mm 1178 W/m 10,9 C 15,2 C 46,7 km/h
S-SW (6 Bft)
100 %
Durchschnitt _ 12,0 C 11,8 C 12,1 C 79 % 1015,6 hPa #2,4 l/m 9,3 km/h (2 Bft) S-SW - #8:00 h #2,819 mm 286 W/m 8,3 C 10,2 C 23,6 km/h (4 Bft) 99 %
PRIVATE WETTERSTATION BILLIGHEIM-ALLFELD - www.neckar-odenwald-wetter.de - Holger Sonntag